Solomon, AZ

6:15 AM MST on February 10, 2016 (GMT -0700)
Safford Regional

Weather History for KSAD - December, 2012

Change the Weather History Date:

Monday, December 24, 2012

  Actual Average Record
Temperature  
Mean Temperature 48 °F -  
Max Temperature 61 °F 56 °F 73 °F (1955)
Min Temperature 34 °F 26 °F 7 °F (1974)
Degree Days  
Heating Degree Days 18    
Moisture  
Dew Point 29 °F    
Average Humidity 53    
Maximum Humidity 73    
Minimum Humidity 31    
Precipitation  
Precipitation 0.00 in - - ()
Sea Level Pressure  
Sea Level Pressure 29.90 in    
Wind  
Wind Speed 6 mph (WNW)    
Max Wind Speed 23 mph    
Max Gust Speed 32 mph    
Visibility 10 miles    
Events      
Averages and records for this station are not official NWS values.
T = Trace of Precipitation, MM = Missing Value Source: NWS Daily Summary

Daily Weather History Graph

Daily Weather History Graph

Search for Another Location

Airport or City:

Trip Planner

Search our weather history database for the weather conditions in past years. The results will help you decide how hot, cold, wet, or windy it might be!

Date:

Astronomy

Dec. 24, 2012 Rise Set
Actual Time 7:18 AM MST 5:18 PM MST
Civil Twilight 6:51 AM MST 5:45 PM MST
Nautical Twilight 6:20 AM MST 6:16 PM MST
Astronomical Twilight 5:50 AM MST 6:46 PM MST
Moon 2:44 PM MST (12/24) 4:04 AM MST (12/24)
Length of Visible Light 10h 54m
Length of Day
9h 59m
Waxing Gibbous, 89% of the Moon is Illuminated
Dec 24
Waxing Gibbous
Dec 28
Full
Jan 4
Last Quarter
Jan 11
New
Jan 18
First Quarter

Hourly Weather History & Observations

Time (MST) Temp. Windchill Dew Point Humidity Pressure Visibility Wind Dir Wind Speed Gust Speed Precip Events Conditions
12:51 AM 37.9 °F 35.5 °F 28.0 °F 68% 29.98 in 10.0 mi ESE 3.5 mph - N/A   Clear
1:51 AM 39.9 °F - 27.0 °F 60% 29.99 in 10.0 mi Calm Calm - N/A   Clear
2:51 AM 37.9 °F - 28.0 °F 68% 29.97 in 10.0 mi Calm Calm - N/A   Clear
3:51 AM 36.0 °F - 27.0 °F 70% 29.96 in 10.0 mi Calm Calm - N/A   Clear
4:51 AM 34.0 °F 31.0 °F 26.1 °F 73% 29.95 in 10.0 mi East 3.5 mph - N/A   Clear
5:51 AM 36.0 °F 31.1 °F 27.0 °F 70% 29.96 in 10.0 mi SSE 5.8 mph - N/A   Clear
6:51 AM 35.1 °F - 27.0 °F 72% 29.98 in 10.0 mi Calm Calm - N/A   Clear
7:51 AM 37.0 °F - 27.0 °F 67% 30.00 in 10.0 mi Calm Calm - N/A   Clear
8:51 AM 39.9 °F - 27.0 °F 60% 30.01 in 10.0 mi Calm Calm - N/A   Clear
9:51 AM 43.0 °F 40.3 °F 27.0 °F 53% 30.02 in 10.0 mi SSE 4.6 mph - N/A   Clear
10:51 AM 48.9 °F - 24.1 °F 38% 30.00 in 10.0 mi Calm Calm - N/A   Clear
11:51 AM 52.0 °F - 26.1 °F 37% 29.96 in 10.0 mi Variable 3.5 mph - N/A   Clear
12:51 PM 55.0 °F - 27.0 °F 34% 29.90 in 10.0 mi WSW 4.6 mph - N/A   Clear
1:51 PM 57.0 °F - 28.0 °F 33% 29.84 in 10.0 mi SW 4.6 mph - N/A   Clear
2:51 PM 61.0 °F - 30.0 °F 31% 29.81 in 10.0 mi WNW 11.5 mph 17.3 mph N/A   Clear
3:51 PM 61.0 °F - 30.9 °F 32% 29.78 in 10.0 mi WNW 12.7 mph - N/A   Clear
4:51 PM 57.9 °F - 32.0 °F 37% 29.75 in 10.0 mi NW 18.4 mph 25.3 mph N/A   Mostly Cloudy
5:51 PM 55.9 °F - 32.0 °F 40% 29.77 in 10.0 mi WNW 23.0 mph 32.2 mph N/A   Overcast
6:51 PM 54.0 °F - 34.0 °F 47% 29.80 in 10.0 mi NW 21.9 mph 32.2 mph 0.00 in   Overcast
7:51 PM 51.1 °F - 35.1 °F 54% 29.83 in 10.0 mi NW 15.0 mph 20.7 mph 0.00 in   Overcast
8:51 PM 50.0 °F - 35.1 °F 57% 29.84 in 10.0 mi NW 18.4 mph 23.0 mph N/A   Partly Cloudy
9:51 PM 50.0 °F - 34.0 °F 54% 29.85 in 10.0 mi NW 16.1 mph - N/A   Mostly Cloudy
10:51 PM 48.0 °F - 34.0 °F 58% 29.85 in 10.0 mi NW 16.1 mph - N/A   Overcast
11:51 PM 46.9 °F - 34.0 °F 61% 29.85 in 10.0 mi NW 17.3 mph - N/A   Clear